Terminal Aerodrome Forecast
Issued by NWS

Home | Current Version | Previous Version | Text Only | Print | Product List | Glossary Off
Versions: 1 2 3 4 5 6 7 8 9 10 11 12 13 14 15

000
FTUS43 KTOP 281100
TAFMHK
TAF
KMHK 281126Z 2812/2912 00000KT P6SM SCT090
     FM281400 17007KT P6SM SCT090
     FM290300 15004KT P6SM SKC=

USA.gov is the U.S. government's official web portal to all federal, state and local government web resources and services.